Time,TemperatureF,DewpointF,PressureIn,WindDirection,WindDirectionDegrees,WindSpeedMPH,WindSpeedGustMPH,Humidity,HourlyPrecipIn,Conditions,Clouds,dailyrainin,SoftwareType,DateUTC
2013-05-27 00:00:00,62.5,53.6,30.11,North,0,0.0,0.0,73,0.00,,,0.00,WUHU216HW,2013-05-27 04:00:00,
2013-05-27 00:01:00,62.5,53.6,30.11,North,0,0.0,0.0,73,0.00,,,0.00,WUHU216HW,2013-05-27 04:01:00,
2013-05-27 00:06:00,62.3,53.8,30.11,North,0,0.0,0.0,74,0.00,,,0.00,WUHU216HW,2013-05-27 04:06:00,
2013-05-27 00:11:00,62.3,53.5,30.11,North,0,0.0,0.0,73,0.00,,,0.00,WUHU216HW,2013-05-27 04:11:00,
2013-05-27 00:16:00,62.3,54.5,30.11,North,0,0.0,0.0,76,0.00,,,0.00,WUHU216HW,2013-05-27 04:16:00,
2013-05-27 00:21:00,62.1,53.7,30.10,North,0,0.0,0.0,74,0.00,,,0.00,WUHU216HW,2013-05-27 04:21:00,
2013-05-27 00:26:00,61.9,54.6,30.10,North,0,0.0,0.0,77,0.00,,,0.00,WUHU216HW,2013-05-27 04:26:00,
2013-05-27 00:31:00,61.7,54.1,30.10,North,0,0.0,0.0,76,0.00,,,0.00,WUHU216HW,2013-05-27 04:31:00,
2013-05-27 00:36:00,61.4,53.4,30.10,North,0,0.0,0.0,75,0.00,,,0.00,WUHU216HW,2013-05-27 04:36:00,
2013-05-27 00:41:00,60.8,53.3,30.10,North,0,0.0,0.0,76,0.00,,,0.00,WUHU216HW,2013-05-27 04:41:00,
2013-05-27 00:46:00,61.0,54.2,30.10,North,0,0.0,0.0,78,0.00,,,0.00,WUHU216HW,2013-05-27 04:46:00,
2013-05-27 00:51:00,61.0,53.8,30.10,North,0,0.0,0.0,77,0.00,,,0.00,WUHU216HW,2013-05-27 04:51:00,
2013-05-27 00:56:00,60.8,54.0,30.10,North,0,0.0,0.0,78,0.00,,,0.00,WUHU216HW,2013-05-27 04:56:00,
2013-05-27 01:01:00,60.7,53.5,30.10,North,0,0.0,0.0,77,0.00,,,0.00,WUHU216HW,2013-05-27 05:01:00,
2013-05-27 01:06:00,60.5,53.3,30.10,North,0,0.0,0.0,77,0.00,,,0.00,WUHU216HW,2013-05-27 05:06:00,
2013-05-27 01:11:00,60.3,53.1,30.10,North,0,0.0,0.0,77,0.00,,,0.00,WUHU216HW,2013-05-27 05:11:00,
2013-05-27 01:16:00,60.3,53.8,30.10,North,0,0.0,0.0,79,0.00,,,0.00,WUHU216HW,2013-05-27 05:16:00,
2013-05-27 01:21:00,60.5,53.6,30.09,North,0,0.0,0.0,78,0.00,,,0.00,WUHU216HW,2013-05-27 05:21:00,
2013-05-27 01:26:00,60.5,54.0,30.09,North,0,0.0,0.0,79,0.00,,,0.00,WUHU216HW,2013-05-27 05:26:00,
2013-05-27 01:31:00,60.3,53.5,30.09,North,0,0.0,0.0,78,0.00,,,0.00,WUHU216HW,2013-05-27 05:31:00,
2013-05-27 01:36:00,60.1,53.6,30.09,North,0,0.0,0.0,79,0.00,,,0.00,WUHU216HW,2013-05-27 05:36:00,
2013-05-27 01:41:00,59.9,53.5,30.09,North,0,0.0,0.0,79,0.00,,,0.00,WUHU216HW,2013-05-27 05:41:00,
2013-05-27 01:46:00,59.6,53.1,30.09,North,0,0.0,0.0,79,0.00,,,0.00,WUHU216HW,2013-05-27 05:46:00,
2013-05-27 01:51:00,59.4,52.9,30.10,North,0,0.0,0.0,79,0.00,,,0.00,WUHU216HW,2013-05-27 05:51:00,
2013-05-27 01:56:00,59.6,53.1,30.09,North,0,0.0,0.0,79,0.00,,,0.00,WUHU216HW,2013-05-27 05:56:00,
2013-05-27 02:01:00,59.6,53.1,30.09,North,0,0.0,0.0,79,0.00,,,0.00,WUHU216HW,2013-05-27 06:01:00,
2013-05-27 02:06:00,59.6,53.1,30.09,North,0,0.0,0.0,79,0.00,,,0.00,WUHU216HW,2013-05-27 06:06:00,
2013-05-27 02:11:00,59.4,52.9,30.09,North,0,0.0,0.0,79,0.00,,,0.00,WUHU216HW,2013-05-27 06:11:00,
2013-05-27 02:16:00,59.0,53.9,30.09,North,0,0.0,0.0,83,0.00,,,0.00,WUHU216HW,2013-05-27 06:16:00,
2013-05-27 02:21:00,59.0,53.3,30.09,North,0,0.0,0.0,81,0.00,,,0.00,WUHU216HW,2013-05-27 06:21:00,
2013-05-27 02:26:00,59.2,53.5,30.09,North,0,0.0,0.0,81,0.00,,,0.00,WUHU216HW,2013-05-27 06:26:00,
2013-05-27 02:31:00,59.0,52.9,30.09,North,0,0.0,0.0,80,0.00,,,0.00,WUHU216HW,2013-05-27 06:31:00,
2013-05-27 02:36:00,59.0,52.9,30.09,North,0,0.0,0.0,80,0.00,,,0.00,WUHU216HW,2013-05-27 06:36:00,
2013-05-27 02:41:00,59.0,52.9,30.09,North,0,0.0,0.0,80,0.00,,,0.00,WUHU216HW,2013-05-27 06:41:00,
2013-05-27 02:46:00,59.0,52.9,30.09,North,0,0.0,0.0,80,0.00,,,0.00,WUHU216HW,2013-05-27 06:46:00,
2013-05-27 02:51:00,58.7,52.9,30.09,North,0,0.0,0.0,81,0.00,,,0.00,WUHU216HW,2013-05-27 06:51:00,
2013-05-27 02:56:00,58.7,52.9,30.09,North,0,0.0,0.0,81,0.00,,,0.00,WUHU216HW,2013-05-27 06:56:00,
2013-05-27 03:01:00,58.7,52.9,30.09,North,0,0.0,0.0,81,0.00,,,0.00,WUHU216HW,2013-05-27 07:01:00,
2013-05-27 03:06:00,58.7,52.9,30.09,North,0,0.0,0.0,81,0.00,,,0.00,WUHU216HW,2013-05-27 07:06:00,
2013-05-27 03:11:00,58.5,53.0,30.09,North,0,0.0,0.0,82,0.00,,,0.00,WUHU216HW,2013-05-27 07:11:00,
2013-05-27 03:16:00,58.3,52.6,30.08,North,0,0.0,0.0,81,0.00,,,0.00,WUHU216HW,2013-05-27 07:16:00,
2013-05-27 03:21:00,58.3,52.6,30.08,North,0,0.0,0.0,81,0.00,,,0.00,WUHU216HW,2013-05-27 07:21:00,
2013-05-27 03:26:00,58.1,52.4,30.08,North,0,0.0,0.0,81,0.00,,,0.00,WUHU216HW,2013-05-27 07:26:00,
2013-05-27 03:31:00,58.0,52.2,30.08,North,0,0.0,0.0,81,0.00,,,0.00,WUHU216HW,2013-05-27 07:31:00,
2013-05-27 03:36:00,57.8,52.7,30.09,North,0,0.0,0.0,83,0.00,,,0.00,WUHU216HW,2013-05-27 07:36:00,
2013-05-27 03:41:00,57.6,52.5,30.09,North,0,0.0,0.0,83,0.00,,,0.00,WUHU216HW,2013-05-27 07:41:00,
2013-05-27 03:46:00,57.4,52.3,30.09,North,0,0.0,0.0,83,0.00,,,0.00,WUHU216HW,2013-05-27 07:46:00,
2013-05-27 03:51:00,57.4,52.3,30.09,North,0,0.0,0.0,83,0.00,,,0.00,WUHU216HW,2013-05-27 07:51:00,
2013-05-27 03:56:00,57.2,52.1,30.09,North,0,0.0,0.0,83,0.00,,,0.00,WUHU216HW,2013-05-27 07:56:00,
2013-05-27 04:01:00,57.4,52.3,30.09,North,0,0.0,0.0,83,0.00,,,0.00,WUHU216HW,2013-05-27 08:01:00,
2013-05-27 04:06:00,57.1,51.9,30.09,North,0,0.0,0.0,83,0.00,,,0.00,WUHU216HW,2013-05-27 08:06:00,
2013-05-27 04:11:00,56.9,52.0,30.09,North,0,0.0,0.0,84,0.00,,,0.00,WUHU216HW,2013-05-27 08:11:00,
2013-05-27 04:16:00,57.1,52.2,30.09,North,0,0.0,0.0,84,0.00,,,0.00,WUHU216HW,2013-05-27 08:16:00,
2013-05-27 04:21:00,57.1,51.9,30.09,North,0,0.0,0.0,83,0.00,,,0.00,WUHU216HW,2013-05-27 08:21:00,
2013-05-27 04:26:00,57.1,52.2,30.09,North,0,0.0,0.0,84,0.00,,,0.00,WUHU216HW,2013-05-27 08:26:00,
2013-05-27 04:31:00,56.9,52.0,30.09,North,0,0.0,0.0,84,0.00,,,0.00,WUHU216HW,2013-05-27 08:31:00,
2013-05-27 04:36:00,56.9,51.8,30.09,North,0,0.0,0.0,83,0.00,,,0.00,WUHU216HW,2013-05-27 08:36:00,
2013-05-27 04:41:00,56.9,52.0,30.09,North,0,0.0,0.0,84,0.00,,,0.00,WUHU216HW,2013-05-27 08:41:00,
2013-05-27 04:46:00,56.9,52.0,30.09,North,0,0.0,0.0,84,0.00,,,0.00,WUHU216HW,2013-05-27 08:46:00,
2013-05-27 04:51:00,56.9,52.0,30.09,North,0,0.0,0.0,84,0.00,,,0.00,WUHU216HW,2013-05-27 08:51:00,
2013-05-27 04:56:00,56.5,52.0,30.09,North,0,0.0,0.0,85,0.00,,,0.00,WUHU216HW,2013-05-27 08:56:00,
2013-05-27 05:01:00,56.5,51.4,30.09,North,0,0.0,0.0,83,0.00,,,0.00,WUHU216HW,2013-05-27 09:01:00,
2013-05-27 05:06:00,56.5,51.4,30.10,North,0,0.0,0.0,83,0.00,,,0.00,WUHU216HW,2013-05-27 09:06:00,
2013-05-27 05:11:00,56.5,51.4,30.10,North,0,0.0,0.0,83,0.00,,,0.00,WUHU216HW,2013-05-27 09:11:00,
2013-05-27 05:17:00,56.5,51.4,30.10,North,0,0.0,0.0,83,0.00,,,0.00,WUHU216HW,2013-05-27 09:17:00,
2013-05-27 05:22:00,56.5,51.7,30.10,North,0,0.0,0.0,84,0.00,,,0.00,WUHU216HW,2013-05-27 09:22:00,
2013-05-27 05:27:00,56.5,51.7,30.10,North,0,0.0,0.0,84,0.00,,,0.00,WUHU216HW,2013-05-27 09:27:00,
2013-05-27 05:32:00,56.5,51.7,30.10,North,0,0.0,0.0,84,0.00,,,0.00,WUHU216HW,2013-05-27 09:32:00,
2013-05-27 05:37:00,56.2,51.3,30.10,North,0,0.0,0.0,84,0.00,,,0.00,WUHU216HW,2013-05-27 09:37:00,
2013-05-27 05:42:00,56.2,51.3,30.10,North,0,0.0,0.0,84,0.00,,,0.00,WUHU216HW,2013-05-27 09:42:00,
2013-05-27 05:47:00,56.2,51.3,30.10,North,0,0.0,0.0,84,0.00,,,0.00,WUHU216HW,2013-05-27 09:47:00,
2013-05-27 05:52:00,56.2,51.7,30.11,North,0,0.0,0.0,85,0.00,,,0.00,WUHU216HW,2013-05-27 09:52:00,
2013-05-27 05:57:00,56.2,51.3,30.10,North,0,0.0,0.0,84,0.00,,,0.00,WUHU216HW,2013-05-27 09:57:00,
2013-05-27 06:02:00,56.2,51.3,30.11,North,0,0.0,0.0,84,0.00,,,0.00,WUHU216HW,2013-05-27 10:02:00,
2013-05-27 06:07:00,56.2,51.3,30.11,North,0,0.0,0.0,84,0.00,,,0.00,WUHU216HW,2013-05-27 10:07:00,
2013-05-27 06:12:00,56.2,52.0,30.11,North,0,0.0,0.0,86,0.00,,,0.00,WUHU216HW,2013-05-27 10:12:00,
2013-05-27 06:17:00,56.2,52.0,30.11,North,0,0.0,0.0,86,0.00,,,0.00,WUHU216HW,2013-05-27 10:17:00,
2013-05-27 06:22:00,56.0,51.5,30.11,North,0,0.0,0.0,85,0.00,,,0.00,WUHU216HW,2013-05-27 10:22:00,
2013-05-27 06:27:00,56.0,51.5,30.11,North,0,0.0,0.0,85,0.00,,,0.00,WUHU216HW,2013-05-27 10:27:00,
2013-05-27 06:32:00,55.8,51.7,30.12,North,0,0.0,0.0,86,0.00,,,0.00,WUHU216HW,2013-05-27 10:32:00,
2013-05-27 06:37:00,55.8,51.7,30.12,North,0,0.0,0.0,86,0.00,,,0.00,WUHU216HW,2013-05-27 10:37:00,
2013-05-27 06:42:00,55.6,51.1,30.12,North,0,0.0,0.0,85,0.00,,,0.00,WUHU216HW,2013-05-27 10:42:00,
2013-05-27 06:47:00,55.8,51.7,30.12,North,0,0.0,0.0,86,0.00,,,0.00,WUHU216HW,2013-05-27 10:47:00,
2013-05-27 06:52:00,55.8,51.7,30.12,North,0,0.0,0.0,86,0.00,,,0.00,WUHU216HW,2013-05-27 10:52:00,
2013-05-27 06:57:00,55.8,51.7,30.13,North,0,0.0,0.0,86,0.00,,,0.00,WUHU216HW,2013-05-27 10:57:00,
2013-05-27 07:02:00,56.0,51.9,30.13,North,0,0.0,0.0,86,0.00,,,0.00,WUHU216HW,2013-05-27 11:02:00,
2013-05-27 07:07:00,56.0,51.9,30.13,North,0,0.0,0.0,86,0.00,,,0.00,WUHU216HW,2013-05-27 11:07:00,
2013-05-27 07:12:00,56.0,51.9,30.13,North,0,0.0,0.0,86,0.00,,,0.00,WUHU216HW,2013-05-27 11:12:00,
2013-05-27 07:17:00,56.2,52.0,30.13,North,0,0.0,0.0,86,0.00,,,0.00,WUHU216HW,2013-05-27 11:17:00,
2013-05-27 07:22:00,56.2,52.3,30.13,North,0,0.0,0.0,87,0.00,,,0.00,WUHU216HW,2013-05-27 11:22:00,
2013-05-27 07:27:00,56.3,52.5,30.14,North,0,0.0,0.0,87,0.00,,,0.00,WUHU216HW,2013-05-27 11:27:00,
2013-05-27 07:32:00,56.3,52.5,30.14,North,0,0.0,0.0,87,0.00,,,0.00,WUHU216HW,2013-05-27 11:32:00,
2013-05-27 07:37:00,56.5,52.7,30.14,North,0,0.0,0.0,87,0.00,,,0.00,WUHU216HW,2013-05-27 11:37:00,
2013-05-27 07:42:00,56.5,52.4,30.14,North,0,0.0,0.0,86,0.00,,,0.00,WUHU216HW,2013-05-27 11:42:00,
2013-05-27 07:47:00,56.5,52.4,30.14,North,0,0.0,0.0,86,0.00,,,0.00,WUHU216HW,2013-05-27 11:47:00,
2013-05-27 07:52:00,56.7,52.6,30.14,North,0,0.0,0.0,86,0.00,,,0.00,WUHU216HW,2013-05-27 11:52:00,
2013-05-27 07:57:00,56.9,52.8,30.14,North,0,0.0,0.0,86,0.00,,,0.00,WUHU216HW,2013-05-27 11:57:00,
2013-05-27 08:02:00,57.1,52.9,30.14,North,0,0.0,0.0,86,0.00,,,0.00,WUHU216HW,2013-05-27 12:02:00,
2013-05-27 08:07:00,57.2,53.1,30.14,North,0,0.0,0.0,86,0.00,,,0.00,WUHU216HW,2013-05-27 12:07:00,
2013-05-27 08:12:00,57.4,53.3,30.14,North,0,0.0,0.0,86,0.00,,,0.00,WUHU216HW,2013-05-27 12:12:00,
2013-05-27 08:17:00,57.6,53.7,30.14,North,0,0.0,0.0,87,0.00,,,0.00,WUHU216HW,2013-05-27 12:17:00,
2013-05-27 08:22:00,57.8,53.9,30.15,North,0,0.0,0.0,87,0.00,,,0.00,WUHU216HW,2013-05-27 12:22:00,
2013-05-27 08:27:00,58.0,54.1,30.14,North,0,0.0,0.0,87,0.00,,,0.00,WUHU216HW,2013-05-27 12:27:00,
2013-05-27 08:32:00,58.1,54.3,30.15,North,0,0.0,0.0,87,0.00,,,0.00,WUHU216HW,2013-05-27 12:32:00,
2013-05-27 08:37:00,58.3,54.5,30.15,North,0,0.0,0.0,87,0.00,,,0.00,WUHU216HW,2013-05-27 12:37:00,
2013-05-27 08:42:00,58.7,54.8,30.15,North,0,0.0,0.0,87,0.00,,,0.00,WUHU216HW,2013-05-27 12:42:00,
2013-05-27 08:47:00,58.7,54.8,30.15,North,0,0.0,0.0,87,0.00,,,0.00,WUHU216HW,2013-05-27 12:47:00,
2013-05-27 08:52:00,58.9,55.0,30.15,North,0,0.0,0.0,87,0.00,,,0.00,WUHU216HW,2013-05-27 12:52:00,
2013-05-27 08:57:00,59.0,55.2,30.15,North,0,0.0,0.0,87,0.00,,,0.00,WUHU216HW,2013-05-27 12:57:00,
2013-05-27 09:02:00,59.2,55.4,30.15,North,0,0.0,0.0,87,0.00,,,0.00,WUHU216HW,2013-05-27 13:02:00,
2013-05-27 09:07:00,59.6,55.7,30.15,North,0,0.0,0.0,87,0.00,,,0.00,WUHU216HW,2013-05-27 13:07:00,
2013-05-27 09:12:00,59.9,56.1,30.15,North,0,0.0,0.0,87,0.00,,,0.00,WUHU216HW,2013-05-27 13:12:00,
2013-05-27 09:17:00,60.3,56.4,30.16,North,0,0.0,0.0,87,0.00,,,0.00,WUHU216HW,2013-05-27 13:17:00,
2013-05-27 09:22:00,60.5,56.6,30.16,North,0,0.0,0.0,87,0.00,,,0.00,WUHU216HW,2013-05-27 13:22:00,
2013-05-27 09:27:00,60.8,57.0,30.16,North,0,0.0,0.0,87,0.00,,,0.00,WUHU216HW,2013-05-27 13:27:00,
2013-05-27 09:32:00,61.2,57.0,30.16,North,0,0.0,0.0,86,0.00,,,0.00,WUHU216HW,2013-05-27 13:32:00,
2013-05-27 09:37:00,61.6,57.3,30.16,North,0,0.0,0.0,86,0.00,,,0.00,WUHU216HW,2013-05-27 13:37:00,
2013-05-27 09:42:00,61.7,57.5,30.16,North,0,0.0,0.0,86,0.00,,,0.00,WUHU216HW,2013-05-27 13:42:00,
2013-05-27 09:47:00,61.9,57.7,30.15,North,0,0.0,0.0,86,0.00,,,0.00,WUHU216HW,2013-05-27 13:47:00,
2013-05-27 09:52:00,62.1,57.5,30.15,North,0,0.0,0.0,85,0.00,,,0.00,WUHU216HW,2013-05-27 13:52:00,
2013-05-27 09:57:00,62.3,57.7,30.15,North,0,0.0,0.0,85,0.03,,,0.03,WUHU216HW,2013-05-27 13:57:00,
2013-05-27 10:02:00,62.8,58.2,30.15,North,0,0.0,0.0,85,0.03,,,0.03,WUHU216HW,2013-05-27 14:02:00,
2013-05-27 10:07:00,63.5,59.0,30.15,North,0,0.0,0.0,85,0.03,,,0.03,WUHU216HW,2013-05-27 14:07:00,
2013-05-27 10:12:00,64.4,59.5,30.15,North,0,0.0,0.0,84,0.03,,,0.03,WUHU216HW,2013-05-27 14:12:00,
2013-05-27 10:17:00,65.3,60.4,30.15,North,0,0.0,0.0,84,0.03,,,0.03,WUHU216HW,2013-05-27 14:17:00,
2013-05-27 10:22:00,66.2,60.6,30.14,North,0,0.0,0.0,82,0.03,,,0.03,WUHU216HW,2013-05-27 14:22:00,
2013-05-27 10:27:00,67.0,61.0,30.14,North,0,0.0,0.0,81,0.03,,,0.03,WUHU216HW,2013-05-27 14:27:00,
2013-05-27 10:32:00,67.3,61.0,30.14,North,0,0.0,0.0,80,0.03,,,0.03,WUHU216HW,2013-05-27 14:32:00,
2013-05-27 10:37:00,68.2,61.1,30.14,North,0,0.0,0.0,78,0.03,,,0.03,WUHU216HW,2013-05-27 14:37:00,
2013-05-27 10:42:00,68.8,61.7,30.14,North,0,0.0,0.0,78,0.03,,,0.03,WUHU216HW,2013-05-27 14:42:00,
2013-05-27 10:47:00,69.5,62.3,30.14,North,0,0.0,0.0,78,0.03,,,0.03,WUHU216HW,2013-05-27 14:47:00,
2013-05-27 10:52:00,70.0,60.5,30.14,North,0,0.0,0.0,72,0.00,,,0.03,WUHU216HW,2013-05-27 14:52:00,
2013-05-27 10:57:00,70.6,61.5,30.14,North,0,0.0,0.0,73,0.00,,,0.03,WUHU216HW,2013-05-27 14:57:00,
2013-05-27 11:02:00,71.1,62.4,30.14,North,0,0.0,0.0,74,0.00,,,0.03,WUHU216HW,2013-05-27 15:02:00,
2013-05-27 11:07:00,71.6,61.4,30.14,North,0,0.0,0.0,70,0.00,,,0.03,WUHU216HW,2013-05-27 15:07:00,
2013-05-27 11:12:00,72.4,63.3,30.13,North,0,0.0,0.0,73,0.00,,,0.03,WUHU216HW,2013-05-27 15:12:00,
2013-05-27 11:17:00,72.7,63.6,30.13,North,0,0.0,0.0,73,0.00,,,0.03,WUHU216HW,2013-05-27 15:17:00,
2013-05-27 11:22:00,72.9,63.4,30.13,North,0,0.0,0.0,72,0.00,,,0.03,WUHU216HW,2013-05-27 15:22:00,
2013-05-27 11:27:00,72.9,63.4,30.13,North,0,0.0,0.0,72,0.00,,,0.03,WUHU216HW,2013-05-27 15:27:00,
2013-05-27 11:48:00,76.0,63.4,30.12,North,0,0.0,0.0,65,0.00,,,0.03,WUHU216HW,2013-05-27 15:48:00,
2013-05-27 11:53:00,76.7,60.8,30.12,North,0,0.0,0.0,58,0.00,,,0.03,WUHU216HW,2013-05-27 15:53:00,
2013-05-27 11:58:00,77.0,63.0,30.12,North,0,0.0,0.0,62,0.00,,,0.03,WUHU216HW,2013-05-27 15:58:00,
2013-05-27 12:03:00,77.6,63.1,30.12,North,0,0.0,0.0,61,0.00,,,0.03,WUHU216HW,2013-05-27 16:03:00,
2013-05-27 12:08:00,77.9,63.0,30.12,North,0,0.0,0.0,60,0.00,,,0.03,WUHU216HW,2013-05-27 16:08:00,
2013-05-27 12:13:00,78.7,63.2,30.12,North,0,0.0,0.0,59,0.00,,,0.03,WUHU216HW,2013-05-27 16:13:00,
2013-05-27 12:18:00,78.8,62.4,30.12,North,0,0.0,0.0,57,0.00,,,0.03,WUHU216HW,2013-05-27 16:18:00,
2013-05-27 12:23:00,79.2,62.6,30.11,North,0,0.0,0.0,57,0.00,,,0.03,WUHU216HW,2013-05-27 16:23:00,
2013-05-27 12:28:00,79.6,59.9,30.11,North,0,0.0,0.0,51,0.00,,,0.03,WUHU216HW,2013-05-27 16:28:00,
2013-05-27 12:33:00,79.6,61.4,30.11,North,0,0.0,0.0,54,0.00,,,0.03,WUHU216HW,2013-05-27 16:33:00,
2013-05-27 12:38:00,79.7,59.5,30.11,North,0,0.0,0.0,50,0.00,,,0.03,WUHU216HW,2013-05-27 16:38:00,
2013-05-27 12:43:00,80.3,61.6,30.11,North,0,0.0,0.0,53,0.00,,,0.03,WUHU216HW,2013-05-27 16:43:00,
2013-05-27 12:48:00,80.3,61.0,30.11,North,0,0.0,0.0,52,0.00,,,0.03,WUHU216HW,2013-05-27 16:48:00,
2013-05-27 12:53:00,80.5,60.1,30.10,North,0,0.0,0.0,50,0.00,,,0.03,WUHU216HW,2013-05-27 16:53:00,
2013-05-27 12:58:00,80.5,60.7,30.10,North,0,0.0,0.0,51,0.00,,,0.03,WUHU216HW,2013-05-27 16:58:00,
2013-05-27 13:03:00,80.6,60.3,30.10,North,0,0.0,0.0,50,0.00,,,0.03,WUHU216HW,2013-05-27 17:03:00,
2013-05-27 13:08:00,80.6,59.7,30.10,North,0,0.0,0.0,49,0.00,,,0.03,WUHU216HW,2013-05-27 17:08:00,
2013-05-27 13:13:00,81.2,60.8,30.10,North,0,0.0,0.0,50,0.00,,,0.03,WUHU216HW,2013-05-27 17:13:00,
2013-05-27 13:18:00,81.7,61.3,30.10,North,0,0.0,0.0,50,0.00,,,0.03,WUHU216HW,2013-05-27 17:18:00,
2013-05-27 13:23:00,82.1,61.6,30.10,North,0,0.0,0.0,50,0.00,,,0.03,WUHU216HW,2013-05-27 17:23:00,
2013-05-27 13:28:00,82.3,60.6,30.10,North,0,0.0,0.0,48,0.00,,,0.03,WUHU216HW,2013-05-27 17:28:00,
2013-05-27 13:33:00,81.9,60.9,30.09,North,0,0.0,0.0,49,0.00,,,0.03,WUHU216HW,2013-05-27 17:33:00,
2013-05-27 13:38:00,81.5,61.1,30.09,North,0,0.0,0.0,50,0.00,,,0.03,WUHU216HW,2013-05-27 17:38:00,
2013-05-27 13:43:00,81.9,59.6,30.09,North,0,0.0,0.0,47,0.00,,,0.03,WUHU216HW,2013-05-27 17:43:00,
2013-05-27 13:48:00,82.3,61.1,30.09,North,0,0.0,0.0,49,0.00,,,0.03,WUHU216HW,2013-05-27 17:48:00,
2013-05-27 13:53:00,82.6,63.2,30.09,North,0,0.0,0.0,52,0.00,,,0.03,WUHU216HW,2013-05-27 17:53:00,
2013-05-27 13:58:00,83.3,61.6,30.09,North,0,0.0,0.0,48,0.00,,,0.03,WUHU216HW,2013-05-27 17:58:00,
2013-05-27 14:03:00,83.5,61.7,30.09,North,0,0.0,0.0,48,0.00,,,0.03,WUHU216HW,2013-05-27 18:03:00,
2013-05-27 14:08:00,83.5,59.9,30.09,North,0,0.0,0.0,45,0.00,,,0.03,WUHU216HW,2013-05-27 18:08:00,
2013-05-27 14:13:00,83.5,58.7,30.09,North,0,0.0,0.0,43,0.00,,,0.03,WUHU216HW,2013-05-27 18:13:00,
2013-05-27 14:18:00,83.2,60.1,30.09,North,0,0.0,0.0,46,0.00,,,0.03,WUHU216HW,2013-05-27 18:18:00,
2013-05-27 14:23:00,82.6,59.1,30.09,North,0,0.0,0.0,45,0.00,,,0.03,WUHU216HW,2013-05-27 18:23:00,
2013-05-27 14:28:00,83.0,58.8,30.09,North,0,0.0,0.0,44,0.00,,,0.03,WUHU216HW,2013-05-27 18:28:00,
2013-05-27 14:33:00,83.3,60.3,30.09,North,0,0.0,0.0,46,0.00,,,0.03,WUHU216HW,2013-05-27 18:33:00,
2013-05-27 14:38:00,83.2,60.1,30.08,North,0,0.0,0.0,46,0.00,,,0.03,WUHU216HW,2013-05-27 18:38:00,
2013-05-27 14:43:00,83.0,60.0,30.08,North,0,0.0,0.0,46,0.00,,,0.03,WUHU216HW,2013-05-27 18:43:00,
2013-05-27 14:48:00,82.8,61.0,30.07,North,0,0.0,0.0,48,0.00,,,0.03,WUHU216HW,2013-05-27 18:48:00,
2013-05-27 14:53:00,81.7,60.7,30.07,North,0,0.0,0.0,49,0.00,,,0.03,WUHU216HW,2013-05-27 18:53:00,
2013-05-27 14:58:00,81.7,61.8,30.07,North,0,0.0,0.0,51,0.00,,,0.03,WUHU216HW,2013-05-27 18:58:00,
2013-05-27 15:03:00,82.1,61.6,30.07,North,0,0.0,0.0,50,0.00,,,0.03,WUHU216HW,2013-05-27 19:03:00,
2013-05-27 15:08:00,82.6,60.8,30.07,North,0,0.0,0.0,48,0.00,,,0.03,WUHU216HW,2013-05-27 19:08:00,
2013-05-27 15:13:00,82.4,60.7,30.07,North,0,0.0,0.0,48,0.00,,,0.03,WUHU216HW,2013-05-27 19:13:00,
2013-05-27 15:18:00,83.0,61.2,30.07,North,0,0.0,0.0,48,0.00,,,0.03,WUHU216HW,2013-05-27 19:18:00,
2013-05-27 15:23:00,82.6,60.8,30.06,North,0,0.0,0.0,48,0.00,,,0.03,WUHU216HW,2013-05-27 19:23:00,
2013-05-27 15:28:00,82.4,60.1,30.06,North,0,0.0,0.0,47,0.00,,,0.03,WUHU216HW,2013-05-27 19:28:00,
2013-05-27 15:33:00,82.6,60.8,30.06,North,0,0.0,0.0,48,0.00,,,0.03,WUHU216HW,2013-05-27 19:33:00,
2013-05-27 15:38:00,82.8,61.7,30.06,North,0,0.0,0.0,49,0.00,,,0.03,WUHU216HW,2013-05-27 19:38:00,
2013-05-27 15:43:00,82.4,61.3,30.06,North,0,0.0,0.0,49,0.00,,,0.03,WUHU216HW,2013-05-27 19:43:00,
2013-05-27 15:48:00,82.1,61.0,30.06,North,0,0.0,0.0,49,0.00,,,0.03,WUHU216HW,2013-05-27 19:48:00,
2013-05-27 15:53:00,81.7,59.4,30.06,North,0,0.0,0.0,47,0.00,,,0.03,WUHU216HW,2013-05-27 19:53:00,
2013-05-27 15:58:00,82.1,60.4,30.06,North,0,0.0,0.0,48,0.00,,,0.03,WUHU216HW,2013-05-27 19:58:00,
2013-05-27 16:03:00,82.3,60.6,30.05,North,0,0.0,0.0,48,0.00,,,0.03,WUHU216HW,2013-05-27 20:03:00,
2013-05-27 16:08:00,82.1,61.6,30.05,North,0,0.0,0.0,50,0.00,,,0.03,WUHU216HW,2013-05-27 20:08:00,
2013-05-27 16:13:00,82.1,59.8,30.05,North,0,0.0,0.0,47,0.00,,,0.03,WUHU216HW,2013-05-27 20:13:00,
2013-05-27 16:18:00,82.1,59.8,30.05,North,0,0.0,0.0,47,0.00,,,0.03,WUHU216HW,2013-05-27 20:18:00,
2013-05-27 16:23:00,82.4,59.5,30.05,North,0,0.0,0.0,46,0.00,,,0.03,WUHU216HW,2013-05-27 20:23:00,
2013-05-27 16:28:00,82.6,59.7,30.05,North,0,0.0,0.0,46,0.00,,,0.03,WUHU216HW,2013-05-27 20:28:00,
2013-05-27 16:33:00,82.6,59.7,30.05,North,0,0.0,0.0,46,0.00,,,0.03,WUHU216HW,2013-05-27 20:33:00,
2013-05-27 16:38:00,82.1,60.4,30.05,North,0,0.0,0.0,48,0.00,,,0.03,WUHU216HW,2013-05-27 20:38:00,
2013-05-27 16:43:00,81.7,60.7,30.05,North,0,0.0,0.0,49,0.00,,,0.03,WUHU216HW,2013-05-27 20:43:00,
2013-05-27 16:48:00,81.7,61.3,30.05,North,0,0.0,0.0,50,0.00,,,0.03,WUHU216HW,2013-05-27 20:48:00,
2013-05-27 16:53:00,81.5,61.1,30.04,North,0,0.0,0.0,50,0.00,,,0.03,WUHU216HW,2013-05-27 20:53:00,
2013-05-27 16:58:00,81.4,60.9,30.05,North,0,0.0,0.0,50,0.00,,,0.03,WUHU216HW,2013-05-27 20:58:00,
2013-05-27 17:03:00,81.4,59.1,30.05,North,0,0.0,0.0,47,0.00,,,0.03,WUHU216HW,2013-05-27 21:03:00,
2013-05-27 17:08:00,81.5,55.6,30.05,North,0,0.0,0.0,41,0.00,,,0.03,WUHU216HW,2013-05-27 21:08:00,
2013-05-27 17:13:00,81.7,58.9,30.04,North,0,0.0,0.0,46,0.00,,,0.03,WUHU216HW,2013-05-27 21:13:00,
2013-05-27 17:18:00,81.5,60.5,30.04,North,0,0.0,0.0,49,0.00,,,0.03,WUHU216HW,2013-05-27 21:18:00,
2013-05-27 17:23:00,81.4,59.8,30.04,North,0,0.0,0.0,48,0.00,,,0.03,WUHU216HW,2013-05-27 21:23:00,
2013-05-27 17:28:00,81.4,60.3,30.04,North,0,0.0,0.0,49,0.00,,,0.03,WUHU216HW,2013-05-27 21:28:00,
2013-05-27 17:33:00,81.5,59.3,30.04,North,0,0.0,0.0,47,0.00,,,0.03,WUHU216HW,2013-05-27 21:33:00,
2013-05-27 17:38:00,82.1,58.5,30.04,North,0,0.0,0.0,45,0.00,,,0.03,WUHU216HW,2013-05-27 21:38:00,
2013-05-27 17:43:00,82.1,59.8,30.04,North,0,0.0,0.0,47,0.00,,,0.03,WUHU216HW,2013-05-27 21:43:00,
2013-05-27 17:48:00,81.9,58.4,30.04,North,0,0.0,0.0,45,0.00,,,0.03,WUHU216HW,2013-05-27 21:48:00,
2013-05-27 17:53:00,81.9,59.0,30.04,North,0,0.0,0.0,46,0.00,,,0.03,WUHU216HW,2013-05-27 21:53:00,
2013-05-27 17:58:00,81.9,57.8,30.04,North,0,0.0,0.0,44,0.00,,,0.03,WUHU216HW,2013-05-27 21:58:00,
2013-05-27 18:03:00,81.9,58.4,30.04,North,0,0.0,0.0,45,0.00,,,0.03,WUHU216HW,2013-05-27 22:03:00,
2013-05-27 18:08:00,82.1,57.3,30.04,North,0,0.0,0.0,43,0.00,,,0.03,WUHU216HW,2013-05-27 22:08:00,
2013-05-27 18:09:00,82.3,57.5,30.04,North,0,0.0,0.0,43,0.00,,,0.03,WUHU216HW,2013-05-27 22:09:00,
2013-05-27 18:10:00,82.3,57.5,30.04,North,0,0.0,0.0,43,0.00,,,0.03,WUHU216HW,2013-05-27 22:10:00,
2013-05-27 18:11:00,82.3,58.1,30.04,North,0,0.0,0.0,44,0.00,,,0.03,WUHU216HW,2013-05-27 22:11:00,
2013-05-27 18:13:00,82.3,59.3,30.04,North,0,0.0,0.0,46,0.00,,,0.03,WUHU216HW,2013-05-27 22:13:00,
2013-05-27 18:14:00,82.1,59.1,30.04,North,0,0.0,0.0,46,0.00,,,0.03,WUHU216HW,2013-05-27 22:14:00,
2013-05-27 18:15:00,82.1,59.1,30.04,North,0,0.0,0.0,46,0.00,,,0.03,WUHU216HW,2013-05-27 22:15:00,
2013-05-27 18:16:00,81.9,59.6,30.04,North,0,0.0,0.0,47,0.00,,,0.03,WUHU216HW,2013-05-27 22:16:00,
2013-05-27 18:17:00,81.9,59.6,30.03,North,0,0.0,0.0,47,0.00,,,0.03,WUHU216HW,2013-05-27 22:17:00,
2013-05-27 18:20:00,81.7,58.2,30.04,North,0,0.0,0.0,45,0.00,,,0.03,WUHU216HW,2013-05-27 22:20:00,
2013-05-27 18:21:00,81.5,58.1,30.04,North,0,0.0,0.0,45,0.00,,,0.03,WUHU216HW,2013-05-27 22:21:00,
2013-05-27 18:22:00,81.5,58.1,30.04,North,0,0.0,0.0,45,0.00,,,0.03,WUHU216HW,2013-05-27 22:22:00,
2013-05-27 18:24:00,81.7,58.9,30.04,North,0,0.0,0.0,46,0.00,,,0.03,WUHU216HW,2013-05-27 22:24:00,
2013-05-27 18:25:00,81.7,57.6,30.03,North,0,0.0,0.0,44,0.00,,,0.03,WUHU216HW,2013-05-27 22:25:00,
2013-05-27 18:26:00,81.7,57.0,30.03,North,0,0.0,0.0,43,0.00,,,0.03,WUHU216HW,2013-05-27 22:26:00,
2013-05-27 18:27:00,81.9,57.8,30.03,North,0,0.0,0.0,44,0.00,,,0.03,WUHU216HW,2013-05-27 22:27:00,
2013-05-27 18:29:00,81.9,59.0,30.03,North,0,0.0,0.0,46,0.00,,,0.03,WUHU216HW,2013-05-27 22:29:00,
2013-05-27 18:32:00,81.4,59.1,30.03,North,0,0.0,0.0,47,0.00,,,0.03,WUHU216HW,2013-05-27 22:32:00,
2013-05-27 18:33:00,81.4,59.1,30.03,North,0,0.0,0.0,47,0.00,,,0.03,WUHU216HW,2013-05-27 22:33:00,
2013-05-27 18:34:00,81.2,59.0,30.04,North,0,0.0,0.0,47,0.00,,,0.03,WUHU216HW,2013-05-27 22:34:00,
2013-05-27 18:35:00,81.2,60.2,30.04,North,0,0.0,0.0,49,0.00,,,0.03,WUHU216HW,2013-05-27 22:35:00,
2013-05-27 18:37:00,81.0,60.0,30.04,North,0,0.0,0.0,49,0.00,,,0.03,WUHU216HW,2013-05-27 22:37:00,
2013-05-27 18:38:00,81.0,60.0,30.04,North,0,0.0,0.0,49,0.00,,,0.03,WUHU216HW,2013-05-27 22:38:00,
2013-05-27 18:39:00,80.8,59.9,30.04,North,0,0.0,0.0,49,0.00,,,0.03,WUHU216HW,2013-05-27 22:39:00,
2013-05-27 18:40:00,80.8,59.9,30.04,North,0,0.0,0.0,49,0.00,,,0.03,WUHU216HW,2013-05-27 22:40:00,
2013-05-27 18:42:00,80.6,59.7,30.04,North,0,0.0,0.0,49,0.00,,,0.03,WUHU216HW,2013-05-27 22:42:00,
2013-05-27 18:44:00,80.6,59.7,30.04,North,0,0.0,0.0,49,0.00,,,0.03,WUHU216HW,2013-05-27 22:44:00,
2013-05-27 18:45:00,80.5,60.1,30.04,North,0,0.0,0.0,50,0.00,,,0.03,WUHU216HW,2013-05-27 22:45:00,
2013-05-27 18:46:00,80.3,59.9,30.04,North,0,0.0,0.0,50,0.00,,,0.03,WUHU216HW,2013-05-27 22:46:00,
2013-05-27 18:47:00,80.1,59.9,30.04,North,0,0.0,0.0,50,0.00,,,0.03,WUHU216HW,2013-05-27 22:47:00,
2013-05-27 18:49:00,79.9,59.7,30.04,North,0,0.0,0.0,50,0.00,,,0.03,WUHU216HW,2013-05-27 22:49:00,
2013-05-27 18:50:00,79.7,59.5,30.04,North,0,0.0,0.0,50,0.00,,,0.03,WUHU216HW,2013-05-27 22:50:00,
2013-05-27 18:51:00,79.6,59.3,30.04,North,0,0.0,0.0,50,0.00,,,0.03,WUHU216HW,2013-05-27 22:51:00,
2013-05-27 18:52:00,79.6,59.9,30.04,North,0,0.0,0.0,51,0.00,,,0.03,WUHU216HW,2013-05-27 22:52:00,
2013-05-27 18:56:00,79.4,60.2,30.04,North,0,0.0,0.0,52,0.00,,,0.03,WUHU216HW,2013-05-27 22:56:00,
2013-05-27 18:57:00,79.2,60.0,30.04,North,0,0.0,0.0,52,0.00,,,0.03,WUHU216HW,2013-05-27 22:57:00,
2013-05-27 18:58:00,79.2,60.0,30.04,North,0,0.0,0.0,52,0.00,,,0.03,WUHU216HW,2013-05-27 22:58:00,
2013-05-27 19:00:00,79.2,60.0,30.04,North,0,0.0,0.0,52,0.00,,,0.03,WUHU216HW,2013-05-27 23:00:00,
2013-05-27 19:01:00,79.0,60.4,30.04,North,0,0.0,0.0,53,0.00,,,0.03,WUHU216HW,2013-05-27 23:01:00,
2013-05-27 19:02:00,79.0,60.4,30.04,North,0,0.0,0.0,53,0.00,,,0.03,WUHU216HW,2013-05-27 23:02:00,
2013-05-27 19:03:00,79.0,60.4,30.04,North,0,0.0,0.0,53,0.00,,,0.03,WUHU216HW,2013-05-27 23:03:00,
2013-05-27 19:05:00,79.0,60.4,30.04,North,0,0.0,0.0,53,0.00,,,0.03,WUHU216HW,2013-05-27 23:05:00,
2013-05-27 19:06:00,78.8,60.2,30.04,North,0,0.0,0.0,53,0.00,,,0.03,WUHU216HW,2013-05-27 23:06:00,
2013-05-27 19:08:00,78.8,60.2,30.04,North,0,0.0,0.0,53,0.00,,,0.03,WUHU216HW,2013-05-27 23:08:00,
2013-05-27 19:09:00,78.8,60.2,30.04,North,0,0.0,0.0,53,0.00,,,0.03,WUHU216HW,2013-05-27 23:09:00,
2013-05-27 19:10:00,78.8,60.2,30.04,North,0,0.0,0.0,53,0.00,,,0.03,WUHU216HW,2013-05-27 23:10:00,
2013-05-27 19:12:00,78.7,60.1,30.04,North,0,0.0,0.0,53,0.00,,,0.03,WUHU216HW,2013-05-27 23:12:00,
2013-05-27 19:13:00,78.7,60.1,30.03,North,0,0.0,0.0,53,0.00,,,0.03,WUHU216HW,2013-05-27 23:13:00,
2013-05-27 19:14:00,78.7,60.1,30.03,North,0,0.0,0.0,53,0.00,,,0.03,WUHU216HW,2013-05-27 23:14:00,
2013-05-27 19:15:00,78.5,60.4,30.04,North,0,0.0,0.0,54,0.00,,,0.03,WUHU216HW,2013-05-27 23:15:00,
2013-05-27 19:17:00,78.5,60.4,30.04,North,0,0.0,0.0,54,0.00,,,0.03,WUHU216HW,2013-05-27 23:17:00,
2013-05-27 19:20:00,78.5,60.4,30.04,North,0,0.0,0.0,54,0.00,,,0.03,WUHU216HW,2013-05-27 23:20:00,
2013-05-27 19:21:00,78.5,60.4,30.04,North,0,0.0,0.0,54,0.00,,,0.03,WUHU216HW,2013-05-27 23:21:00,
2013-05-27 19:22:00,78.3,60.3,30.04,North,0,0.0,0.0,54,0.00,,,0.03,WUHU216HW,2013-05-27 23:22:00,
2013-05-27 19:24:00,78.1,60.1,30.04,North,0,0.0,0.0,54,0.00,,,0.03,WUHU216HW,2013-05-27 23:24:00,
2013-05-27 19:25:00,78.1,60.6,30.04,North,0,0.0,0.0,55,0.00,,,0.03,WUHU216HW,2013-05-27 23:25:00,
2013-05-27 19:26:00,78.1,60.6,30.04,North,0,0.0,0.0,55,0.00,,,0.03,WUHU216HW,2013-05-27 23:26:00,
2013-05-27 19:27:00,78.1,60.6,30.04,North,0,0.0,0.0,55,0.00,,,0.03,WUHU216HW,2013-05-27 23:27:00,
2013-05-27 19:28:00,77.9,60.5,30.04,North,0,0.0,0.0,55,0.00,,,0.03,WUHU216HW,2013-05-27 23:28:00,
2013-05-27 19:30:00,77.9,60.5,30.04,North,0,0.0,0.0,55,0.00,,,0.03,WUHU216HW,2013-05-27 23:30:00,
2013-05-27 19:32:00,77.9,60.5,30.04,North,0,0.0,0.0,55,0.00,,,0.03,WUHU216HW,2013-05-27 23:32:00,
2013-05-27 19:33:00,77.8,60.3,30.04,North,0,0.0,0.0,55,0.00,,,0.03,WUHU216HW,2013-05-27 23:33:00,
2013-05-27 19:34:00,77.8,60.8,30.04,North,0,0.0,0.0,56,0.00,,,0.03,WUHU216HW,2013-05-27 23:34:00,
2013-05-27 19:35:00,77.8,60.8,30.04,North,0,0.0,0.0,56,0.00,,,0.03,WUHU216HW,2013-05-27 23:35:00,
2013-05-27 19:37:00,77.9,60.9,30.04,North,0,0.0,0.0,56,0.00,,,0.03,WUHU216HW,2013-05-27 23:37:00,
2013-05-27 19:38:00,77.9,60.9,30.04,North,0,0.0,0.0,56,0.00,,,0.03,WUHU216HW,2013-05-27 23:38:00,
2013-05-27 19:39:00,77.8,60.8,30.04,North,0,0.0,0.0,56,0.00,,,0.03,WUHU216HW,2013-05-27 23:39:00,
2013-05-27 19:40:00,77.8,60.8,30.04,North,0,0.0,0.0,56,0.00,,,0.03,WUHU216HW,2013-05-27 23:40:00,
2013-05-27 19:44:00,77.4,60.4,30.04,North,0,0.0,0.0,56,0.00,,,0.03,WUHU216HW,2013-05-27 23:44:00,
2013-05-27 19:45:00,77.4,60.4,30.04,North,0,0.0,0.0,56,0.00,,,0.03,WUHU216HW,2013-05-27 23:45:00,
2013-05-27 19:46:00,77.4,60.4,30.04,North,0,0.0,0.0,56,0.00,,,0.03,WUHU216HW,2013-05-27 23:46:00,
2013-05-27 19:47:00,77.4,60.4,30.03,North,0,0.0,0.0,56,0.00,,,0.03,WUHU216HW,2013-05-27 23:47:00,
2013-05-27 19:48:00,77.2,60.3,30.04,North,0,0.0,0.0,56,0.00,,,0.03,WUHU216HW,2013-05-27 23:48:00,
2013-05-27 19:50:00,77.2,60.8,30.03,North,0,0.0,0.0,57,0.00,,,0.03,WUHU216HW,2013-05-27 23:50:00,
2013-05-27 19:51:00,77.0,60.6,30.04,North,0,0.0,0.0,57,0.00,,,0.03,WUHU216HW,2013-05-27 23:51:00,
2013-05-27 19:52:00,77.0,60.6,30.04,North,0,0.0,0.0,57,0.00,,,0.03,WUHU216HW,2013-05-27 23:52:00,
2013-05-27 19:53:00,77.0,60.6,30.03,North,0,0.0,0.0,57,0.00,,,0.03,WUHU216HW,2013-05-27 23:53:00,
2013-05-27 19:55:00,77.0,60.6,30.03,North,0,0.0,0.0,57,0.00,,,0.03,WUHU216HW,2013-05-27 23:55:00,
2013-05-27 19:57:00,76.9,60.4,30.03,North,0,0.0,0.0,57,0.00,,,0.03,WUHU216HW,2013-05-27 23:57:00,
2013-05-27 19:58:00,76.9,60.4,30.03,North,0,0.0,0.0,57,0.00,,,0.03,WUHU216HW,2013-05-27 23:58:00,
2013-05-27 20:00:00,76.9,60.4,30.03,North,0,0.0,0.0,57,0.00,,,0.03,WUHU216HW,2013-05-28 00:00:00,
2013-05-27 20:01:00,76.9,60.4,30.03,North,0,0.0,0.0,57,0.00,,,0.03,WUHU216HW,2013-05-28 00:01:00,
2013-05-27 20:02:00,76.9,60.9,30.03,North,0,0.0,0.0,58,0.00,,,0.03,WUHU216HW,2013-05-28 00:02:00,
2013-05-27 20:03:00,76.9,60.9,30.03,North,0,0.0,0.0,58,0.00,,,0.03,WUHU216HW,2013-05-28 00:03:00,
2013-05-27 20:05:00,76.7,60.8,30.03,North,0,0.0,0.0,58,0.00,,,0.03,WUHU216HW,2013-05-28 00:05:00,
2013-05-27 20:08:00,76.7,61.3,30.03,North,0,0.0,0.0,59,0.00,,,0.03,WUHU216HW,2013-05-28 00:08:00,
2013-05-27 20:09:00,76.7,61.3,30.03,North,0,0.0,0.0,59,0.00,,,0.03,WUHU216HW,2013-05-28 00:09:00,
2013-05-27 20:10:00,76.7,61.3,30.03,North,0,0.0,0.0,59,0.00,,,0.03,WUHU216HW,2013-05-28 00:10:00,
2013-05-27 20:12:00,76.7,61.3,30.03,North,0,0.0,0.0,59,0.00,,,0.03,WUHU216HW,2013-05-28 00:12:00,
2013-05-27 20:13:00,76.5,61.7,30.03,North,0,0.0,0.0,60,0.00,,,0.03,WUHU216HW,2013-05-28 00:13:00,
2013-05-27 20:14:00,76.5,61.7,30.03,North,0,0.0,0.0,60,0.00,,,0.03,WUHU216HW,2013-05-28 00:14:00,
2013-05-27 20:15:00,76.5,61.7,30.03,North,0,0.0,0.0,60,0.00,,,0.03,WUHU216HW,2013-05-28 00:15:00,
2013-05-27 20:17:00,76.5,61.7,30.03,North,0,0.0,0.0,60,0.00,,,0.03,WUHU216HW,2013-05-28 00:17:00,
2013-05-27 20:18:00,76.5,61.7,30.03,North,0,0.0,0.0,60,0.00,,,0.03,WUHU216HW,2013-05-28 00:18:00,
2013-05-27 20:20:00,76.3,61.9,30.03,North,0,0.0,0.0,61,0.00,,,0.03,WUHU216HW,2013-05-28 00:20:00,
2013-05-27 20:21:00,76.3,61.9,30.03,North,0,0.0,0.0,61,0.00,,,0.03,WUHU216HW,2013-05-28 00:21:00,
2013-05-27 20:22:00,76.3,61.9,30.03,North,0,0.0,0.0,61,0.00,,,0.03,WUHU216HW,2013-05-28 00:22:00,
2013-05-27 20:24:00,76.0,61.6,30.03,North,0,0.0,0.0,61,0.00,,,0.03,WUHU216HW,2013-05-28 00:24:00,
2013-05-27 20:25:00,76.0,62.0,30.02,North,0,0.0,0.0,62,0.00,,,0.03,WUHU216HW,2013-05-28 00:25:00,
2013-05-27 20:26:00,76.0,62.0,30.03,North,0,0.0,0.0,62,0.00,,,0.03,WUHU216HW,2013-05-28 00:26:00,
2013-05-27 20:27:00,76.0,62.0,30.03,North,0,0.0,0.0,62,0.00,,,0.03,WUHU216HW,2013-05-28 00:27:00,
2013-05-27 20:28:00,76.0,62.0,30.03,North,0,0.0,0.0,62,0.00,,,0.03,WUHU216HW,2013-05-28 00:28:00,
2013-05-27 20:32:00,75.8,62.3,30.03,North,0,0.0,0.0,63,0.00,,,0.03,WUHU216HW,2013-05-28 00:32:00,
2013-05-27 20:33:00,75.6,62.1,30.02,North,0,0.0,0.0,63,0.00,,,0.03,WUHU216HW,2013-05-28 00:33:00,
2013-05-27 20:34:00,75.6,62.1,30.02,North,0,0.0,0.0,63,0.00,,,0.03,WUHU216HW,2013-05-28 00:34:00,
2013-05-27 20:35:00,75.6,62.1,30.02,North,0,0.0,0.0,63,0.00,,,0.03,WUHU216HW,2013-05-28 00:35:00,
2013-05-27 20:37:00,75.4,61.9,30.02,North,0,0.0,0.0,63,0.00,,,0.03,WUHU216HW,2013-05-28 00:37:00,
2013-05-27 20:38:00,75.4,61.9,30.02,North,0,0.0,0.0,63,0.00,,,0.03,WUHU216HW,2013-05-28 00:38:00,
2013-05-27 20:39:00,75.4,61.9,30.02,North,0,0.0,0.0,63,0.00,,,0.03,WUHU216HW,2013-05-28 00:39:00,
2013-05-27 20:40:00,75.2,61.7,30.02,North,0,0.0,0.0,63,0.00,,,0.03,WUHU216HW,2013-05-28 00:40:00,
2013-05-27 20:42:00,75.2,62.2,30.02,North,0,0.0,0.0,64,0.00,,,0.03,WUHU216HW,2013-05-28 00:42:00,
2013-05-27 20:44:00,75.2,62.2,30.02,North,0,0.0,0.0,64,0.00,,,0.03,WUHU216HW,2013-05-28 00:44:00,
2013-05-27 20:45:00,75.2,62.2,30.02,North,0,0.0,0.0,64,0.00,,,0.03,WUHU216HW,2013-05-28 00:45:00,
2013-05-27 20:46:00,75.2,62.2,30.02,North,0,0.0,0.0,64,0.00,,,0.03,WUHU216HW,2013-05-28 00:46:00,
2013-05-27 20:47:00,75.2,62.2,30.02,North,0,0.0,0.0,64,0.00,,,0.03,WUHU216HW,2013-05-28 00:47:00,
2013-05-27 20:49:00,75.1,62.0,30.02,North,0,0.0,0.0,64,0.00,,,0.03,WUHU216HW,2013-05-28 00:49:00,
2013-05-27 20:50:00,75.1,62.0,30.02,North,0,0.0,0.0,64,0.00,,,0.03,WUHU216HW,2013-05-28 00:50:00,
2013-05-27 20:51:00,75.1,62.5,30.02,North,0,0.0,0.0,65,0.00,,,0.03,WUHU216HW,2013-05-28 00:51:00,
2013-05-27 20:52:00,75.1,62.5,30.02,North,0,0.0,0.0,65,0.00,,,0.03,WUHU216HW,2013-05-28 00:52:00,
2013-05-27 20:55:00,74.9,62.3,30.02,North,0,0.0,0.0,65,0.00,,,0.03,WUHU216HW,2013-05-28 00:55:00,
2013-05-27 20:57:00,74.9,62.3,30.02,North,0,0.0,0.0,65,0.00,,,0.03,WUHU216HW,2013-05-28 00:57:00,
2013-05-27 20:58:00,74.9,62.3,30.02,North,0,0.0,0.0,65,0.00,,,0.03,WUHU216HW,2013-05-28 00:58:00,
2013-05-27 21:00:00,74.7,62.6,30.02,North,0,0.0,0.0,66,0.00,,,0.03,WUHU216HW,2013-05-28 01:00:00,
2013-05-27 21:01:00,74.7,62.6,30.02,North,0,0.0,0.0,66,0.00,,,0.03,WUHU216HW,2013-05-28 01:01:00,
2013-05-27 21:02:00,74.7,62.6,30.03,North,0,0.0,0.0,66,0.00,,,0.03,WUHU216HW,2013-05-28 01:02:00,
2013-05-27 21:04:00,74.5,62.4,30.03,North,0,0.0,0.0,66,0.00,,,0.03,WUHU216HW,2013-05-28 01:04:00,
2013-05-27 21:05:00,74.5,62.4,30.03,North,0,0.0,0.0,66,0.00,,,0.03,WUHU216HW,2013-05-28 01:05:00,
2013-05-27 21:06:00,74.5,62.4,30.03,North,0,0.0,0.0,66,0.00,,,0.03,WUHU216HW,2013-05-28 01:06:00,
2013-05-27 21:08:00,74.3,62.2,30.03,North,0,0.0,0.0,66,0.00,,,0.03,WUHU216HW,2013-05-28 01:08:00,
2013-05-27 21:09:00,74.2,62.1,30.03,North,0,0.0,0.0,66,0.00,,,0.03,WUHU216HW,2013-05-28 01:09:00,
2013-05-27 21:11:00,74.0,62.4,30.03,North,0,0.0,0.0,67,0.00,,,0.03,WUHU216HW,2013-05-28 01:11:00,
2013-05-27 21:12:00,74.0,62.4,30.03,North,0,0.0,0.0,67,0.00,,,0.03,WUHU216HW,2013-05-28 01:12:00,
2013-05-27 21:13:00,73.8,62.7,30.03,North,0,0.0,0.0,68,0.00,,,0.03,WUHU216HW,2013-05-28 01:13:00,
2013-05-27 21:14:00,73.8,63.1,30.03,North,0,0.0,0.0,69,0.00,,,0.03,WUHU216HW,2013-05-28 01:14:00,
2013-05-27 21:15:00,73.8,63.6,30.03,North,0,0.0,0.0,70,0.00,,,0.03,WUHU216HW,2013-05-28 01:15:00,
2013-05-27 21:17:00,73.6,62.5,30.03,North,0,0.0,0.0,68,0.00,,,0.03,WUHU216HW,2013-05-28 01:17:00,
2013-05-27 21:20:00,73.3,62.1,30.03,North,0,0.0,0.0,68,0.00,,,0.03,WUHU216HW,2013-05-28 01:20:00,
2013-05-27 21:21:00,73.3,63.0,30.03,North,0,0.0,0.0,70,0.00,,,0.03,WUHU216HW,2013-05-28 01:21:00,
2013-05-27 21:22:00,73.3,63.4,30.03,North,0,0.0,0.0,71,0.00,,,0.03,WUHU216HW,2013-05-28 01:22:00,
2013-05-27 21:24:00,73.1,62.8,30.03,North,0,0.0,0.0,70,0.00,,,0.03,WUHU216HW,2013-05-28 01:24:00,
2013-05-27 21:25:00,73.1,62.8,30.03,North,0,0.0,0.0,70,0.00,,,0.03,WUHU216HW,2013-05-28 01:25:00,
2013-05-27 21:26:00,73.1,62.4,30.03,North,0,0.0,0.0,69,0.00,,,0.03,WUHU216HW,2013-05-28 01:26:00,
2013-05-27 21:27:00,72.9,63.0,30.03,North,0,0.0,0.0,71,0.00,,,0.03,WUHU216HW,2013-05-28 01:27:00,
2013-05-27 21:29:00,72.9,62.6,30.03,North,0,0.0,0.0,70,0.00,,,0.03,WUHU216HW,2013-05-28 01:29:00,
2013-05-27 21:30:00,72.7,62.5,30.03,North,0,0.0,0.0,70,0.00,,,0.03,WUHU216HW,2013-05-28 01:30:00,
2013-05-27 21:32:00,72.7,62.5,30.03,North,0,0.0,0.0,70,0.00,,,0.03,WUHU216HW,2013-05-28 01:32:00,
2013-05-27 21:33:00,72.7,62.5,30.03,North,0,0.0,0.0,70,0.00,,,0.03,WUHU216HW,2013-05-28 01:33:00,
2013-05-27 21:34:00,72.7,62.5,30.03,North,0,0.0,0.0,70,0.00,,,0.03,WUHU216HW,2013-05-28 01:34:00,
2013-05-27 21:36:00,72.7,62.5,30.03,North,0,0.0,0.0,70,0.00,,,0.03,WUHU216HW,2013-05-28 01:36:00,
2013-05-27 21:37:00,72.7,62.5,30.03,North,0,0.0,0.0,70,0.00,,,0.03,WUHU216HW,2013-05-28 01:37:00,
2013-05-27 21:38:00,72.7,62.5,30.03,North,0,0.0,0.0,70,0.00,,,0.03,WUHU216HW,2013-05-28 01:38:00,
2013-05-27 21:39:00,72.7,62.5,30.04,North,0,0.0,0.0,70,0.00,,,0.03,WUHU216HW,2013-05-28 01:39:00,
2013-05-27 21:41:00,72.7,62.5,30.04,North,0,0.0,0.0,70,0.00,,,0.03,WUHU216HW,2013-05-28 01:41:00,
2013-05-27 21:44:00,72.5,62.3,30.04,North,0,0.0,0.0,70,0.00,,,0.03,WUHU216HW,2013-05-28 01:44:00,
2013-05-27 21:45:00,72.5,62.6,30.04,North,0,0.0,0.0,71,0.00,,,0.03,WUHU216HW,2013-05-28 01:45:00,
2013-05-27 21:46:00,72.5,62.6,30.04,North,0,0.0,0.0,71,0.00,,,0.03,WUHU216HW,2013-05-28 01:46:00,
2013-05-27 21:48:00,72.4,62.5,30.04,North,0,0.0,0.0,71,0.00,,,0.03,WUHU216HW,2013-05-28 01:48:00,
2013-05-27 21:49:00,72.2,62.3,30.04,North,0,0.0,0.0,71,0.00,,,0.03,WUHU216HW,2013-05-28 01:49:00,
2013-05-27 21:50:00,72.2,62.3,30.04,North,0,0.0,0.0,71,0.00,,,0.03,WUHU216HW,2013-05-28 01:50:00,
2013-05-27 21:51:00,72.0,62.5,30.04,North,0,0.0,0.0,72,0.00,,,0.03,WUHU216HW,2013-05-28 01:51:00,
2013-05-27 21:53:00,71.8,61.6,30.04,North,0,0.0,0.0,70,0.00,,,0.03,WUHU216HW,2013-05-28 01:53:00,
2013-05-27 21:54:00,71.8,61.6,30.04,North,0,0.0,0.0,70,0.00,,,0.03,WUHU216HW,2013-05-28 01:54:00,
2013-05-27 21:56:00,71.6,61.4,30.04,North,0,0.0,0.0,70,0.00,,,0.03,WUHU216HW,2013-05-28 01:56:00,
2013-05-27 21:57:00,71.6,61.4,30.04,North,0,0.0,0.0,70,0.00,,,0.03,WUHU216HW,2013-05-28 01:57:00,
2013-05-27 22:07:00,71.1,61.2,30.04,North,0,0.0,0.0,71,0.00,,,0.03,WUHU216HW,2013-05-28 02:07:00,
2013-05-27 22:12:00,70.9,61.0,30.05,North,0,0.0,0.0,71,0.00,,,0.03,WUHU216HW,2013-05-28 02:12:00,
2013-05-27 22:17:00,70.7,61.2,30.05,North,0,0.0,0.0,72,0.00,,,0.03,WUHU216HW,2013-05-28 02:17:00,
2013-05-27 22:22:00,70.6,61.5,30.05,North,0,0.0,0.0,73,0.00,,,0.03,WUHU216HW,2013-05-28 02:22:00,
2013-05-27 22:27:00,70.4,60.8,30.05,North,0,0.0,0.0,72,0.00,,,0.03,WUHU216HW,2013-05-28 02:27:00,
2013-05-27 22:32:00,70.4,60.8,30.05,North,0,0.0,0.0,72,0.00,,,0.03,WUHU216HW,2013-05-28 02:32:00,
2013-05-27 22:37:00,70.2,61.1,30.05,North,0,0.0,0.0,73,0.00,,,0.03,WUHU216HW,2013-05-28 02:37:00,
2013-05-27 22:42:00,70.2,61.1,30.05,North,0,0.0,0.0,73,0.00,,,0.03,WUHU216HW,2013-05-28 02:42:00,
2013-05-27 22:47:00,70.0,60.9,30.05,North,0,0.0,0.0,73,0.00,,,0.03,WUHU216HW,2013-05-28 02:47:00,
2013-05-27 22:52:00,69.8,61.1,30.06,North,0,0.0,0.0,74,0.00,,,0.03,WUHU216HW,2013-05-28 02:52:00,
2013-05-27 22:57:00,69.7,60.9,30.06,North,0,0.0,0.0,74,0.00,,,0.03,WUHU216HW,2013-05-28 02:57:00,
2013-05-27 23:02:00,69.5,60.8,30.07,North,0,0.0,0.0,74,0.00,,,0.03,WUHU216HW,2013-05-28 03:02:00,
2013-05-27 23:07:00,69.5,60.8,30.07,North,0,0.0,0.0,74,0.00,,,0.03,WUHU216HW,2013-05-28 03:07:00,
2013-05-27 23:12:00,69.5,60.8,30.07,North,0,0.0,0.0,74,0.00,,,0.03,WUHU216HW,2013-05-28 03:12:00,
2013-05-27 23:17:00,69.5,60.8,30.07,North,0,0.0,0.0,74,0.00,,,0.03,WUHU216HW,2013-05-28 03:17:00,
2013-05-27 23:22:00,69.3,60.6,30.07,North,0,0.0,0.0,74,0.00,,,0.03,WUHU216HW,2013-05-28 03:22:00,
2013-05-27 23:27:00,68.9,60.3,30.07,North,0,0.0,0.0,74,0.00,,,0.03,WUHU216HW,2013-05-28 03:27:00,
2013-05-27 23:32:00,68.8,60.8,30.07,North,0,0.0,0.0,76,0.00,,,0.03,WUHU216HW,2013-05-28 03:32:00,
2013-05-27 23:37:00,68.8,60.8,30.07,North,0,0.0,0.0,76,0.00,,,0.03,WUHU216HW,2013-05-28 03:37:00,
2013-05-27 23:42:00,68.4,60.9,30.07,North,0,0.0,0.0,77,0.00,,,0.03,WUHU216HW,2013-05-28 03:42:00,
2013-05-27 23:47:00,68.4,60.9,30.07,North,0,0.0,0.0,77,0.00,,,0.03,WUHU216HW,2013-05-28 03:47:00,
2013-05-27 23:52:00,68.2,61.1,30.07,North,0,0.0,0.0,78,0.00,,,0.03,WUHU216HW,2013-05-28 03:52:00,
2013-05-27 23:57:00,67.9,61.2,30.07,North,0,0.0,0.0,79,0.00,,,0.03,WUHU216HW,2013-05-28 03:57:00,